| time (UTC) | temp F | wind direction | speed knots | gust knots | rain 1hr in | rain 24hr in | rain mn in | humidity % | barometer mb |
| 20260507060100 | 45 | 360 | 0.0 | 3.5 | 0.00 | 0.00 | 0.00 | 91 | 1015.8 |
| 20260507054554 | 44 | 0 | 0.9 | 2.6 | 0.00 | 0.00 | 0.00 | 92 | 1015.6 |
| 20260507053056 | 44 | 0 | 0.0 | 3.5 | 0.00 | 0.00 | 0.00 | 92 | 1015.6 |
| 20260507051556 | 43 | 0 | 0.0 | 0.0 | 0.00 | 0.00 | 0.00 | 93 | 1015.3 |
| 20260507050058 | 43 | 0 | 0.0 | 0.0 | 0.00 | 0.00 | 0.00 | 93 | 1015.2 |
| 20260507044556 | 43 | 0 | 0.0 | 0.0 | 0.00 | 0.00 | 0.00 | 93 | 1015.2 |
| 20260507043101 | 43 | 0 | 0.0 | 2.6 | 0.00 | 0.00 | 0.00 | 93 | 1015.0 |
| 20260507041556 | 43 | 0 | 0.0 | 0.9 | 0.00 | 0.00 | 0.00 | 93 | 1014.8 |
| 20260507040057 | 43 | 360 | 0.0 | 2.6 | 0.00 | 0.00 | 0.00 | 93 | 1014.6 |
| 20260507034556 | 43 | 0 | 0.0 | 1.7 | 0.00 | 0.00 | 0.00 | 92 | 1014.5 |
| 20260507033058 | 43 | 0 | 0.0 | 1.7 | 0.00 | 0.00 | 0.00 | 92 | 1014.6 |
| 20260507031557 | 43 | 0 | 0.0 | 1.7 | 0.00 | 0.00 | 0.00 | 92 | 1014.5 |
| 20260507030059 | 43 | 0 | 0.0 | 1.7 | 0.00 | 0.00 | 0.00 | 92 | 1014.4 |
| 20260507024625 | 43 | 0 | 0.0 | 0.9 | 0.00 | 0.00 | 0.00 | 92 | 1014.4 |
| 20260507023058 | 43 | 0 | 0.0 | 1.7 | 0.00 | 0.00 | 0.00 | 92 | 1014.4 |
| 20260507021555 | 43 | 0 | 0.0 | 0.9 | 0.00 | 0.00 | 0.00 | 92 | 1014.2 |
| 20260507020109 | 43 | 0 | 0.0 | 1.7 | 0.00 | 0.00 | 0.00 | 92 | 1014.1 |
| 20260507014607 | 43 | 0 | 0.0 | 0.9 | 0.00 | 0.00 | 0.00 | 92 | 1014.0 |
| 20260507013100 | 43 | 0 | 0.0 | 0.9 | 0.00 | 0.00 | 0.00 | 92 | 1014.1 |
| 20260507011603 | 43 | 0 | 0.0 | 2.6 | 0.00 | 0.00 | 0.00 | 91 | 1014.0 |
| 20260507010058 | 44 | 360 | 0.0 | 1.7 | 0.00 | 0.00 | 0.00 | 91 | 1013.8 |
| 20260507004556 | 44 | 0 | 0.0 | 1.7 | 0.00 | 0.00 | 0.00 | 90 | 1013.8 |
| 20260507003057 | 45 | 0 | 0.0 | 3.5 | 0.00 | 0.00 | 0.00 | 89 | 1013.7 |
| 20260507001601 | 46 | 360 | 0.0 | 3.5 | 0.00 | 0.00 | 0.00 | 88 | 1013.7 |
| 20260507000059 | 46 | 360 | 0.9 | 3.5 | 0.00 | 0.00 | 0.00 | 87 | 1013.6 |
| 20260506234605 | 47 | 0 | 0.9 | 4.3 | 0.00 | 0.00 | 0.00 | 86 | 1013.5 |
| 20260506233101 | 47 | 0 | 0.9 | 5.2 | 0.00 | 0.00 | 0.00 | 85 | 1013.6 |
| 20260506231559 | 48 | 360 | 0.9 | 4.3 | 0.00 | 0.00 | 0.00 | 84 | 1013.6 |
| 20260506230100 | 48 | 360 | 0.0 | 3.5 | 0.00 | 0.00 | 0.00 | 84 | 1013.6 |
| 20260506224556 | 48 | 360 | 0.9 | 5.2 | 0.00 | 0.00 | 0.00 | 83 | 1013.5 |
| 20260506223058 | 49 | 360 | 0.9 | 4.3 | 0.00 | 0.00 | 0.00 | 82 | 1013.5 |
| 20260506221558 | 49 | 360 | 1.7 | 4.3 | 0.00 | 0.00 | 0.00 | 82 | 1013.5 |
| 20260506220057 | 49 | 0 | 0.9 | 7.0 | 0.00 | 0.00 | 0.00 | 83 | 1013.4 |
| 20260506214553 | 49 | 0 | 0.9 | 3.5 | 0.00 | 0.00 | 0.00 | 84 | 1013.3 |
| 20260506213118 | 49 | 0 | 0.0 | 3.5 | 0.00 | 0.00 | 0.00 | 84 | 1013.1 |
| 20260506211608 | 49 | 0 | 0.0 | 2.6 | 0.00 | 0.00 | 0.00 | 85 | 1013.0 |
| 20260506204601 | 50 | 0 | 0.0 | 0.9 | 0.00 | 0.00 | 0.00 | 85 | 1012.7 |
| 20260506203102 | 50 | 0 | 0.0 | 0.0 | 0.00 | 0.00 | 0.00 | 84 | 1012.8 |
| 20260506201609 | 50 | 0 | 0.0 | 0.9 | 0.00 | 0.00 | 0.00 | 83 | 1012.6 |
| 20260506194610 | 50 | 0 | 0.0 | 0.0 | 0.00 | 0.00 | 0.00 | 83 | 1012.3 |
| 20260506193057 | 50 | 0 | 0.0 | 0.9 | 0.00 | 0.00 | 0.00 | 81 | 1012.2 |
| 20260506191610 | 50 | 0 | 0.0 | 1.7 | 0.00 | 0.00 | 0.00 | 81 | 1012.0 |
| 20260506190103 | 51 | 0 | 0.0 | 0.9 | 0.00 | 0.00 | 0.00 | 80 | 1011.8 |
| 20260506184607 | 51 | 360 | 0.0 | 1.7 | 0.00 | 0.00 | 0.00 | 78 | 1011.7 |
| 20260506183103 | 51 | 0 | 0.0 | 1.7 | 0.00 | 0.00 | 0.00 | 77 | 1011.6 |
| 20260506181556 | 52 | 0 | 0.0 | 2.6 | 0.00 | 0.00 | 0.00 | 77 | 1011.4 |
| 20260506180058 | 52 | 0 | 0.0 | 2.6 | 0.00 | 0.00 | 0.00 | 75 | 1011.3 |
| 20260506174601 | 52 | 0 | 0.0 | 0.9 | 0.00 | 0.00 | 0.00 | 76 | 1011.2 |
| 20260506173103 | 52 | 0 | 0.9 | 4.3 | 0.00 | 0.00 | 0.00 | 75 | 1010.9 |
| 20260506171602 | 52 | 0 | 0.0 | 2.6 | 0.00 | 0.00 | 0.00 | 76 | 1010.9 |
| 20260506170116 | 52 | 0 | 0.0 | 4.3 | 0.00 | 0.00 | 0.00 | 77 | 1010.8 |
| 20260506164601 | 52 | 0 | 0.0 | 2.6 | 0.00 | 0.00 | 0.00 | 78 | 1010.9 |
| 20260506163111 | 52 | 0 | 0.0 | 2.6 | 0.00 | 0.00 | 0.00 | 78 | 1010.8 |
| 20260506161559 | 51 | 0 | 1.7 | 7.0 | 0.00 | 0.00 | 0.00 | 77 | 1010.8 |
| 20260506160100 | 52 | 0 | 0.9 | 3.5 | 0.00 | 0.00 | 0.00 | 80 | 1010.6 |
| 20260506154607 | 52 | 360 | 0.9 | 7.0 | 0.00 | 0.00 | 0.00 | 72 | 1010.7 |
| 20260506153104 | 53 | 360 | 0.9 | 4.3 | 0.00 | 0.00 | 0.00 | 70 | 1010.7 |
| 20260506151607 | 53 | 360 | 1.7 | 8.7 | 0.00 | 0.00 | 0.00 | 70 | 1010.6 |
| 20260506150103 | 53 | 360 | 0.9 | 5.2 | 0.00 | 0.00 | 0.00 | 71 | 1010.5 |
| 20260506144607 | 53 | 360 | 0.0 | 7.8 | 0.00 | 0.00 | 0.00 | 73 | 1010.4 |
| 20260506143109 | 53 | 0 | 0.9 | 7.0 | 0.00 | 0.00 | 0.00 | 76 | 1010.4 |
| 20260506141558 | 53 | 360 | 0.9 | 7.0 | 0.00 | 0.00 | 0.00 | 77 | 1010.4 |
| 20260506140058 | 52 | 360 | 1.7 | 7.0 | 0.00 | 0.00 | 0.00 | 78 | 1010.4 |
| 20260506134556 | 52 | 360 | 1.7 | 11.3 | 0.00 | 0.00 | 0.00 | 79 | 1010.4 |
| 20260506133058 | 52 | 360 | 2.6 | 10.4 | 0.00 | 0.00 | 0.00 | 77 | 1010.4 |
| 20260506131603 | 52 | 360 | 0.9 | 7.0 | 0.00 | 0.00 | 0.00 | 75 | 1010.3 |
| 20260506124556 | 52 | 360 | 1.7 | 9.6 | 0.00 | 0.00 | 0.00 | 73 | 1010.0 |
| 20260506123058 | 53 | 0 | 0.9 | 4.3 | 0.00 | 0.00 | 0.00 | 71 | 1009.9 |
| 20260506121558 | 52 | 360 | 1.7 | 8.7 | 0.00 | 0.00 | 0.00 | 72 | 1009.9 |
| 20260506120056 | 52 | 360 | 0.9 | 7.0 | 0.00 | 0.00 | 0.00 | 71 | 1009.9 |
| 20260506114607 | 52 | 360 | 2.6 | 7.8 | 0.00 | 0.00 | 0.00 | 71 | 1009.9 |
| 20260506113057 | 52 | 360 | 1.7 | 8.7 | 0.00 | 0.00 | 0.00 | 69 | 1009.8 |
| 20260506111602 | 53 | 360 | 1.7 | 8.7 | 0.00 | 0.00 | 0.00 | 69 | 1009.7 |
| 20260506110058 | 53 | 360 | 2.6 | 8.7 | 0.00 | 0.00 | 0.00 | 70 | 1009.6 |
| 20260506104559 | 52 | 360 | 0.9 | 5.2 | 0.00 | 0.00 | 0.00 | 69 | 1009.7 |
| 20260506103117 | 52 | 360 | 1.7 | 7.0 | 0.00 | 0.00 | 0.00 | 71 | 1009.6 |
| 20260506101557 | 52 | 360 | 0.9 | 8.7 | 0.00 | 0.00 | 0.00 | 72 | 1009.5 |
| 20260506100057 | 52 | 360 | 2.6 | 11.3 | 0.00 | 0.00 | 0.00 | 72 | 1009.5 |
| 20260506094606 | 52 | 360 | 1.7 | 7.0 | 0.00 | 0.00 | 0.00 | 73 | 1009.5 |
| 20260506093056 | 52 | 360 | 0.9 | 5.2 | 0.00 | 0.00 | 0.00 | 73 | 1009.4 |
| 20260506091607 | 51 | 360 | 0.9 | 7.8 | 0.00 | 0.00 | 0.00 | 76 | 1009.3 |
| 20260506090100 | 51 | 360 | 1.7 | 7.0 | 0.00 | 0.00 | 0.00 | 75 | 1009.2 |
| 20260506084614 | 51 | 360 | 1.7 | 8.7 | 0.00 | 0.00 | 0.00 | 76 | 1009.2 |
| 20260506083057 | 51 | 360 | 0.9 | 4.3 | 0.00 | 0.00 | 0.00 | 76 | 1009.2 |
| 20260506081607 | 50 | 0 | 0.0 | 7.8 | 0.00 | 0.00 | 0.00 | 79 | 1009.1 |
| 20260506073102 | 50 | 55 | 0.9 | 7.0 | 0.00 | 0.00 | 0.00 | 85 | 1008.8 |
| 20260506071559 | 50 | 16 | 1.7 | 7.0 | 0.00 | 0.00 | 0.00 | 88 | 1008.6 |
| 20260506061601 | 48 | 325 | 0.0 | 3.5 | 0.00 | 0.00 | 0.00 | 93 | 1008.6 |